| time (UTC) | temp C | wind direction | speed KPH | gust KPH | rain 1hr cm | rain 24hr cm | rain mn cm | humidity % | barometer mb |
| 20260507051526 | 13 | 231 | 0.0 | 4.8 | 0.00 | 0.00 | 0.00 | 37 | 1011.9 |
| 20260507050029 | 13 | 250 | 0.0 | 8.0 | 0.00 | 0.00 | 0.00 | 37 | 1011.7 |
| 20260507044525 | 13 | 236 | 0.0 | 6.4 | 0.00 | 0.00 | 0.00 | 37 | 1011.6 |
| 20260507043027 | 13 | 211 | 0.0 | 6.4 | 0.00 | 0.00 | 0.00 | 37 | 1011.5 |
| 20260507041524 | 13 | 210 | 1.6 | 9.7 | 0.00 | 0.00 | 0.00 | 36 | 1011.4 |
| 20260507040023 | 13 | 221 | 0.0 | 8.0 | 0.00 | 0.00 | 0.00 | 36 | 1011.2 |
| 20260507034531 | 14 | 244 | 0.0 | 6.4 | 0.00 | 0.00 | 0.00 | 35 | 1011.1 |
| 20260507033022 | 14 | 223 | 0.0 | 11.3 | 0.00 | 0.00 | 0.00 | 34 | 1010.9 |
| 20260507031522 | 15 | 222 | 1.6 | 11.3 | 0.00 | 0.00 | 0.00 | 34 | 1010.8 |
| 20260507030022 | 15 | 309 | 3.2 | 9.7 | 0.00 | 0.00 | 0.00 | 33 | 1010.6 |
| 20260507024522 | 16 | 220 | 0.0 | 9.7 | 0.00 | 0.00 | 0.00 | 32 | 1010.5 |
| 20260507023020 | 16 | 211 | 1.6 | 9.7 | 0.00 | 0.00 | 0.00 | 31 | 1010.2 |
| 20260507021521 | 17 | 257 | 0.0 | 6.4 | 0.00 | 0.00 | 0.00 | 31 | 1010.3 |
| 20260507020027 | 17 | 239 | 0.0 | 6.4 | 0.00 | 0.00 | 0.00 | 29 | 1010.0 |
| 20260507014517 | 18 | 211 | 0.0 | 11.3 | 0.00 | 0.00 | 0.00 | 28 | 1009.9 |
| 20260507013021 | 18 | 220 | 0.0 | 6.4 | 0.00 | 0.00 | 0.00 | 27 | 1009.7 |
| 20260507011525 | 19 | 243 | 3.2 | 12.9 | 0.00 | 0.00 | 0.00 | 26 | 1009.6 |
| 20260507010016 | 20 | 312 | 0.0 | 8.0 | 0.00 | 0.00 | 0.00 | 25 | 1009.7 |
| 20260507004515 | 20 | 325 | 0.0 | 6.4 | 0.00 | 0.00 | 0.00 | 24 | 1009.8 |
| 20260507003015 | 20 | 312 | 0.0 | 4.8 | 0.00 | 0.00 | 0.00 | 24 | 1009.7 |
| 20260507001543 | 20 | 302 | 0.0 | 8.0 | 0.00 | 0.00 | 0.00 | 23 | 1009.7 |
| 20260507000016 | 21 | 240 | 0.0 | 6.4 | 0.00 | 0.00 | 0.00 | 21 | 1009.6 |
| 20260506234513 | 21 | 237 | 0.0 | 4.8 | 0.00 | 0.00 | 0.00 | 21 | 1009.5 |
| 20260506233012 | 22 | 13 | 0.0 | 4.8 | 0.00 | 0.00 | 0.00 | 21 | 1009.7 |
| 20260506231512 | 22 | 207 | 0.0 | 11.3 | 0.00 | 0.00 | 0.00 | 21 | 1009.7 |
| 20260506230011 | 21 | 245 | 0.0 | 3.2 | 0.00 | 0.00 | 0.00 | 20 | 1009.8 |
| 20260506224509 | 21 | 223 | 0.0 | 1.6 | 0.00 | 0.00 | 0.00 | 21 | 1010.0 |
| 20260506223109 | 21 | 223 | 0.0 | 4.8 | 0.00 | 0.00 | 0.00 | 21 | 1010.3 |
| 20260506221508 | 21 | 5 | 0.0 | 8.0 | 0.00 | 0.00 | 0.00 | 21 | 1010.6 |
| 20260506220008 | 22 | 259 | 0.0 | 6.4 | 0.00 | 0.00 | 0.00 | 21 | 1010.7 |
| 20260506214507 | 22 | 5 | 1.6 | 9.7 | 0.00 | 0.00 | 0.00 | 21 | 1011.0 |
| 20260506213006 | 22 | 165 | 1.6 | 8.0 | 0.00 | 0.00 | 0.00 | 21 | 1011.3 |
| 20260506211506 | 22 | 323 | 0.0 | 4.8 | 0.00 | 0.00 | 0.00 | 21 | 1011.5 |
| 20260506210008 | 22 | 322 | 0.0 | 9.7 | 0.00 | 0.00 | 0.00 | 21 | 1011.7 |
| 20260506204501 | 21 | 198 | 0.0 | 8.0 | 0.00 | 0.00 | 0.00 | 21 | 1011.7 |
| 20260506203121 | 21 | 286 | 0.0 | 8.0 | 0.00 | 0.00 | 0.00 | 22 | 1011.8 |
| 20260506201556 | 20 | 254 | 0.0 | 9.7 | 0.00 | 0.00 | 0.00 | 22 | 1011.9 |
| 20260506200058 | 20 | 355 | 0.0 | 4.8 | 0.00 | 0.00 | 0.00 | 23 | 1012.2 |
| 20260506194554 | 20 | 15 | 1.6 | 8.0 | 0.00 | 0.00 | 0.00 | 23 | 1012.4 |
| 20260506193101 | 20 | 111 | 0.0 | 4.8 | 0.00 | 0.00 | 0.00 | 23 | 1012.4 |
| 20260506191551 | 20 | 327 | 0.0 | 3.2 | 0.00 | 0.00 | 0.00 | 23 | 1012.4 |
| 20260506190052 | 20 | 5 | 1.6 | 9.7 | 0.00 | 0.00 | 0.00 | 23 | 1012.6 |
| 20260506184548 | 18 | 5 | 3.2 | 8.0 | 0.00 | 0.00 | 0.00 | 25 | 1012.7 |
| 20260506183045 | 18 | 15 | 0.0 | 6.4 | 0.00 | 0.00 | 0.00 | 25 | 1012.9 |
| 20260506181549 | 18 | 17 | 1.6 | 8.0 | 0.00 | 0.00 | 0.00 | 26 | 1013.0 |
| 20260506180039 | 18 | 355 | 1.6 | 8.0 | 0.00 | 0.00 | 0.00 | 27 | 1013.0 |
| 20260506174539 | 17 | 277 | 1.6 | 6.4 | 0.00 | 0.00 | 0.00 | 28 | 1013.1 |
| 20260506173036 | 17 | 281 | 1.6 | 6.4 | 0.00 | 0.00 | 0.00 | 29 | 1013.1 |
| 20260506171534 | 17 | 39 | 0.0 | 8.0 | 0.00 | 0.00 | 0.00 | 29 | 1013.0 |
| 20260506170036 | 16 | 355 | 0.0 | 6.4 | 0.00 | 0.00 | 0.00 | 31 | 1012.9 |
| 20260506164543 | 16 | 333 | 0.0 | 8.0 | 0.00 | 0.00 | 0.00 | 32 | 1013.0 |
| 20260506163025 | 16 | 251 | 0.0 | 4.8 | 0.00 | 0.00 | 0.00 | 31 | 1012.8 |
| 20260506161523 | 15 | 246 | 0.0 | 8.0 | 0.00 | 0.00 | 0.00 | 32 | 1012.7 |
| 20260506160019 | 15 | 328 | 0.0 | 3.2 | 0.00 | 0.00 | 0.00 | 32 | 1012.8 |
| 20260506154515 | 14 | 293 | 0.0 | 4.8 | 0.00 | 0.00 | 0.00 | 32 | 1012.7 |
| 20260506153012 | 13 | 277 | 0.0 | 3.2 | 0.00 | 0.00 | 0.00 | 34 | 1012.7 |
| 20260506151508 | 12 | 269 | 0.0 | 3.2 | 0.00 | 0.00 | 0.00 | 36 | 1012.7 |
| 20260506150004 | 12 | 215 | 0.0 | 6.4 | 0.00 | 0.00 | 0.00 | 38 | 1012.6 |
| 20260506144610 | 11 | 282 | 0.0 | 4.8 | 0.00 | 0.00 | 0.00 | 39 | 1012.6 |
| 20260506143056 | 10 | 245 | 0.0 | 4.8 | 0.00 | 0.00 | 0.00 | 44 | 1012.5 |
| 20260506141551 | 8 | 227 | 0.0 | 1.6 | 0.00 | 0.00 | 0.00 | 49 | 1012.3 |
| 20260506140048 | 7 | 227 | 0.0 | 1.6 | 0.00 | 0.00 | 0.00 | 54 | 1012.4 |
| 20260506134544 | 6 | 227 | 0.0 | 1.6 | 0.00 | 0.00 | 0.00 | 60 | 1012.1 |
| 20260506133051 | 4 | 227 | 0.0 | 0.0 | 0.00 | 0.00 | 0.00 | 65 | 1011.9 |
| 20260506131536 | 3 | 227 | 0.0 | 0.0 | 0.00 | 0.00 | 0.00 | 66 | 1011.8 |
| 20260506130033 | 3 | 227 | 0.0 | 0.0 | 0.00 | 0.00 | 0.00 | 65 | 1011.7 |
| 20260506124528 | 3 | 227 | 0.0 | 0.0 | 0.00 | 0.00 | 0.00 | 65 | 1011.5 |
| 20260506123024 | 3 | 227 | 0.0 | 0.0 | 0.00 | 0.00 | 0.00 | 65 | 1011.2 |
| 20260506121523 | 3 | 227 | 0.0 | 1.6 | 0.00 | 0.00 | 0.00 | 64 | 1011.2 |
| 20260506120041 | 3 | 227 | 0.0 | 0.0 | 0.00 | 0.00 | 0.00 | 63 | 1011.2 |
| 20260506114519 | 3 | 227 | 0.0 | 0.0 | 0.00 | 0.00 | 0.00 | 62 | 1011.2 |
| 20260506113016 | 3 | 227 | 0.0 | 0.0 | 0.00 | 0.00 | 0.00 | 62 | 1011.2 |
| 20260506111514 | 4 | 227 | 0.0 | 0.0 | 0.00 | 0.00 | 0.00 | 61 | 1011.0 |
| 20260506110013 | 4 | 227 | 0.0 | 0.0 | 0.00 | 0.00 | 0.00 | 61 | 1010.9 |
| 20260506104521 | 4 | 227 | 0.0 | 1.6 | 0.00 | 0.00 | 0.00 | 61 | 1010.7 |
| 20260506103028 | 4 | 227 | 0.0 | 1.6 | 0.00 | 0.00 | 0.00 | 61 | 1010.7 |
| 20260506101509 | 4 | 227 | 0.0 | 1.6 | 0.00 | 0.00 | 0.00 | 61 | 1010.6 |
| 20260506100008 | 4 | 227 | 0.0 | 0.0 | 0.00 | 0.00 | 0.00 | 61 | 1010.6 |
| 20260506094505 | 4 | 227 | 0.0 | 0.0 | 0.00 | 0.00 | 0.00 | 60 | 1010.6 |
| 20260506093005 | 4 | 227 | 0.0 | 0.0 | 0.00 | 0.00 | 0.00 | 60 | 1010.4 |
| 20260506091502 | 4 | 227 | 0.0 | 0.0 | 0.00 | 0.00 | 0.00 | 60 | 1010.1 |
| 20260506090105 | 5 | 227 | 0.0 | 0.0 | 0.00 | 0.00 | 0.00 | 59 | 1010.1 |
| 20260506084631 | 5 | 227 | 0.0 | 0.0 | 0.00 | 0.00 | 0.00 | 58 | 1010.0 |
| 20260506083056 | 5 | 227 | 0.0 | 0.0 | 0.00 | 0.00 | 0.00 | 56 | 1010.1 |
| 20260506081559 | 5 | 227 | 0.0 | 0.0 | 0.00 | 0.00 | 0.00 | 56 | 1010.1 |
| 20260506073050 | 6 | 227 | 0.0 | 0.0 | 0.00 | 0.00 | 0.00 | 54 | 1010.2 |
| 20260506071548 | 6 | 227 | 0.0 | 1.6 | 0.00 | 0.00 | 0.00 | 52 | 1010.1 |
| 20260506061540 | 7 | 227 | 0.0 | 1.6 | 0.00 | 0.00 | 0.00 | 50 | 1009.7 |